GW1622 Weather Reports


Display with metric or nautical units.
time (UTC)temp
F
wind
direction
speed
MPH
gust
MPH
rain 1hr
in
rain 24hr
in
rain mn
in
humidity
%
barometer
mb
20260504012015 64 0 0.0 5.0 0.00 0.00 0.00 66 1014.6
20260504011534 64 71 0.0 5.0 0.00 0.00 0.00 66 1014.5
20260504011015 64 295 0.0 5.0 0.00 0.00 0.00 66 1014.5
20260504010513 64 0 0.0 5.0 0.00 0.00 0.00 66 1014.2
20260504010029 64 0 1.0 3.0 0.00 0.00 0.00 66 1014.2
20260504005515 64 46 0.0 2.0 0.00 0.00 0.00 65 1014.2
20260504005014 65 0 0.0 3.0 0.00 0.00 0.00 64 1014.1
20260504004534 65 0 0.0 3.0 0.00 0.00 0.00 64 1014.2
20260504004015 64 0 0.0 3.0 0.00 0.00 0.00 64 1014.0
20260504003517 65 0 0.0 4.0 0.00 0.00 0.00 63 1014.3
20260504003033 65 0 0.0 4.0 0.00 0.00 0.00 63 1014.1
20260504002515 65 28 1.0 4.0 0.00 0.00 0.00 63 1014.1
20260504002014 66 0 0.0 4.0 0.00 0.00 0.00 63 1014.1
20260504001537 65 350 0.0 4.0 0.00 0.00 0.00 63 1014.0
20260504001015 66 25 0.0 3.0 0.00 0.00 0.00 63 1014.0
20260504000517 66 84 0.0 5.0 0.00 0.00 0.00 63 1013.9
20260504000031 66 17 0.0 5.0 0.00 0.00 0.00 63 1014.0
20260503235515 66 73 1.0 5.0 0.00 0.00 0.00 61 1013.8
20260503235015 65 61 0.0 5.0 0.00 0.00 0.00 62 1013.9
20260503234539 65 71 1.0 6.0 0.00 0.00 0.00 62 1014.0
20260503234015 65 0 2.0 6.0 0.00 0.00 0.00 63 1013.8
20260503233514 66 0 1.0 6.0 0.00 0.00 0.00 61 1013.7
20260503233037 66 0 2.0 6.0 0.00 0.00 0.00 61 1013.6
20260503232514 67 360 1.0 4.0 0.00 0.00 0.00 62 1013.8
20260503232015 67 52 1.0 7.0 0.00 0.00 0.00 61 1013.7
20260503231534 67 352 1.0 7.0 0.00 0.00 0.00 62 1013.7
20260503231013 67 360 1.0 9.0 0.00 0.00 0.00 61 1013.7
20260503230516 67 109 0.0 9.0 0.00 0.00 0.00 63 1013.7
20260503230033 68 325 2.0 6.0 0.00 0.00 0.00 61 1013.8
20260503225515 70 24 1.0 5.0 0.00 0.00 0.00 60 1013.7
20260503225015 69 56 1.0 8.0 0.00 0.00 0.00 59 1014.0
20260503224531 68 334 2.0 8.0 0.00 0.00 0.00 62 1014.0
20260503224015 69 0 2.0 6.0 0.00 0.00 0.00 62 1014.1
20260503223514 69 34 1.0 8.0 0.00 0.00 0.00 59 1014.0
20260503223030 68 0 0.0 8.0 0.00 0.00 0.00 61 1014.0
20260503222514 69 19 1.0 8.0 0.00 0.00 0.00 60 1014.1
20260503222015 69 35 1.0 5.0 0.00 0.00 0.00 60 1014.2
20260503221536 68 22 1.0 5.0 0.00 0.00 0.00 61 1014.2
20260503221014 67 327 1.0 5.0 0.00 0.00 0.00 61 1014.2
20260503220516 68 36 1.0 6.0 0.00 0.00 0.00 59 1014.0
20260503220032 69 40 1.0 7.0 0.00 0.00 0.00 59 1014.0
20260503215516 69 338 1.0 7.0 0.00 0.00 0.00 59 1014.2
20260503215015 69 5 1.0 7.0 0.00 0.00 0.00 60 1014.3
20260503214530 68 44 2.0 7.0 0.00 0.00 0.00 61 1014.3
20260503214016 68 344 2.0 6.0 0.00 0.00 0.00 60 1014.2
20260503213513 67 23 2.0 8.0 0.00 0.00 0.00 60 1014.3
20260503213037 67 119 2.0 8.0 0.00 0.00 0.00 59 1014.3
20260503212516 70 32 2.0 8.0 0.00 0.00 0.00 55 1014.4
20260503212013 69 225 1.0 8.0 0.00 0.00 0.00 59 1014.4
20260503211531 70 30 1.0 6.0 0.00 0.00 0.00 58 1014.5
20260503211015 70 107 1.0 5.0 0.00 0.00 0.00 59 1014.6
20260503210515 71 163 1.0 7.0 0.00 0.00 0.00 57 1014.6
20260503210030 71 0 1.0 7.0 0.00 0.00 0.00 58 1014.6
20260503205515 70 32 2.0 7.0 0.00 0.00 0.00 60 1014.6
20260503205015 69 0 1.0 10.0 0.00 0.00 0.00 63 1014.6
20260503204530 69 352 3.0 10.0 0.00 0.00 0.00 59 1014.7
20260503204016 69 0 1.0 7.0 0.00 0.00 0.00 63 1014.7
20260503203515 70 343 2.0 7.0 0.00 0.00 0.00 61 1014.7
20260503203036 67 5 2.0 6.0 0.00 0.00 0.00 62 1014.8
20260503202515 69 283 2.0 6.0 0.00 0.00 0.00 63 1014.8
20260503202019 68 352 1.0 9.0 0.00 0.00 0.00 66 1014.9
20260503201532 69 73 2.0 9.0 0.00 0.00 0.00 64 1014.9
20260503201016 69 11 1.0 6.0 0.00 0.00 0.00 65 1014.8
20260503200519 69 82 1.0 6.0 0.00 0.00 0.00 63 1014.7
20260503200032 68 5 1.0 7.0 0.00 0.00 0.00 65 1015.0
20260503195515 68 0 1.0 7.0 0.00 0.00 0.00 64 1015.0
20260503195020 69 342 1.0 8.0 0.00 0.00 0.00 65 1015.0
20260503194532 68 94 2.0 8.0 0.00 0.00 0.00 65 1015.0
20260503194015 69 281 2.0 9.0 0.00 0.00 0.00 65 1015.1
20260503193519 68 360 1.0 9.0 0.00 0.00 0.00 68 1015.1
20260503193034 69 34 2.0 11.0 0.00 0.00 0.00 66 1015.1
20260503192515 68 66 2.0 11.0 0.00 0.00 0.00 66 1015.1
20260503192015 68 53 1.0 4.0 0.00 0.00 0.00 68 1015.1
20260503191535 67 92 1.0 5.0 0.00 0.00 0.00 67 1015.0
20260503191016 67 42 1.0 5.0 0.00 0.00 0.00 68 1015.0
20260503190517 67 5 2.0 5.0 0.00 0.00 0.00 67 1015.1
20260503190032 67 0 1.0 6.0 0.00 0.00 0.00 68 1015.1
20260503185514 67 54 1.0 6.0 0.00 0.00 0.00 68 1015.1
20260503185015 67 314 1.0 5.0 0.00 0.00 0.00 68 1015.0
20260503184532 67 0 1.0 5.0 0.00 0.00 0.00 69 1015.0
20260503184018 66 28 1.0 6.0 0.00 0.00 0.00 70 1015.1
20260503183517 66 58 1.0 6.0 0.00 0.00 0.00 68 1015.2
20260503183031 67 340 1.0 6.0 0.00 0.00 0.00 69 1015.2
20260503182515 66 47 1.0 8.0 0.00 0.00 0.00 69 1015.3
20260503182019 66 337 2.0 8.0 0.00 0.00 0.00 70 1015.4
20260503181531 66 5 1.0 6.0 0.00 0.00 0.00 71 1015.3
20260503181015 66 128 1.0 4.0 0.00 0.00 0.00 70 1015.2
20260503180515 66 350 1.0 5.0 0.00 0.00 0.00 72 1015.3
20260503180032 66 344 1.0 5.0 0.00 0.00 0.00 72 1015.3
20260503175516 66 346 1.0 4.0 0.00 0.00 0.00 72 1015.3
20260503175014 66 319 1.0 4.0 0.00 0.00 0.00 71 1015.4
20260503174532 67 17 0.0 4.0 0.00 0.00 0.00 73 1015.4
20260503174015 66 333 1.0 6.0 0.00 0.00 0.00 73 1015.4
20260503173518 66 107 2.0 6.0 0.00 0.00 0.00 71 1015.3
20260503173037 67 26 1.0 6.0 0.00 0.00 0.00 69 1015.3
20260503172516 68 320 1.0 6.0 0.00 0.00 0.00 73 1015.3
20260503172016 67 300 2.0 9.0 0.00 0.00 0.00 73 1015.2
20260503171538 66 11 2.0 9.0 0.00 0.00 0.00 73 1015.1
20260503171021 65 0 1.0 4.0 0.00 0.00 0.00 74 1015.2
20260503170517 66 32 1.0 4.0 0.00 0.00 0.00 75 1015.1
20260503150514 62 0 0.0 2.0 0.00 0.00 0.00 79 1014.7
20260503131018 60 0 0.0 1.0 0.00 0.00 0.00 82 1014.1
20260503130514 60 0 0.0 2.0 0.00 0.00 0.00 81 1013.8
20260503110515 60 0 0.0 1.0 0.00 0.00 0.00 84 1013.3
20260503081531 61 0 0.0 0.0 0.00 0.00 0.00 85 1014.3
20260503081019 61 0 0.0 1.0 0.00 0.00 0.00 85 1014.2
20260503080517 61 0 0.0 1.0 0.00 0.00 0.00 85 1014.1
20260503072515 61 0 0.0 2.0 0.00 0.00 0.00 86 1014.6
20260503072014 61 93 0.0 2.0 0.00 0.00 0.00 86 1014.7
20260503071545 61 0 0.0 2.0 0.00 0.00 0.00 86 1014.5
20260503071016 61 0 0.0 2.0 0.00 0.00 0.00 86 1014.6
20260503070516 61 0 0.0 2.0 0.00 0.00 0.00 86 1014.6
20260503055016 61 0 0.0 2.0 0.00 0.00 0.00 87 1014.2
20260503054548 61 0 0.0 2.0 0.00 0.00 0.00 87 1014.2
20260503054016 61 0 0.0 2.0 0.00 0.00 0.00 87 1014.2
20260503053516 61 0 0.0 2.0 0.00 0.00 0.00 87 1014.2
20260503053036 61 0 0.0 0.0 0.00 0.00 0.00 87 1014.3
20260503052515 61 0 0.0 0.0 0.00 0.00 0.00 87 1014.2
20260503052017 61 0 0.0 2.0 0.00 0.00 0.00 87 1014.2
20260503051535 61 0 0.0 2.0 0.00 0.00 0.00 87 1014.2
20260503051017 61 0 0.0 0.0 0.00 0.00 0.00 87 1014.2
20260503050517 61 0 0.0 1.0 0.00 0.00 0.00 87 1014.1
20260503050037 61 0 0.0 1.0 0.00 0.00 0.00 87 1014.0
20260503045517 61 0 0.0 1.0 0.00 0.00 0.00 87 1013.7
20260503045018 61 53 0.0 1.0 0.00 0.00 0.00 87 1013.5
20260503044534 61 0 0.0 1.0 0.00 0.00 0.00 87 1013.5
20260503044014 61 0 0.0 1.0 0.00 0.00 0.00 87 1013.4
20260503043515 61 0 0.0 1.0 0.00 0.00 0.00 87 1013.4
20260503043032 61 0 0.0 0.0 0.00 0.00 0.00 87 1013.3
20260503042515 61 0 0.0 0.0 0.00 0.00 0.00 87 1013.2
20260503042016 60 0 0.0 2.0 0.00 0.00 0.00 87 1013.1
20260503041538 60 0 0.0 2.0 0.00 0.00 0.00 87 1013.1
20260503041015 60 0 0.0 1.0 0.00 0.00 0.00 87 1012.9
20260503040516 60 0 0.0 1.0 0.00 0.00 0.00 87 1012.8
20260503040031 60 0 0.0 1.0 0.00 0.00 0.00 87 1012.8
20260503035516 60 0 0.0 1.0 0.00 0.00 0.00 87 1012.5
20260503035017 60 0 0.0 0.0 0.00 0.00 0.00 87 1012.5
20260503034532 60 0 0.0 0.0 0.00 0.00 0.00 87 1012.4
20260503034015 60 0 0.0 1.0 0.00 0.00 0.00 87 1012.5
20260503033514 60 0 0.0 1.0 0.00 0.00 0.00 86 1012.3
20260503033036 60 0 0.0 3.0 0.00 0.00 0.00 86 1012.2
20260503032516 60 0 0.0 3.0 0.00 0.00 0.00 86 1012.2
20260503032017 60 5 0.0 3.0 0.00 0.00 0.00 85 1012.1
20260503031534 60 0 0.0 1.0 0.00 0.00 0.00 85 1012.0
20260503031018 60 0 0.0 0.0 0.00 0.00 0.00 85 1012.0
20260503030515 60 0 0.0 2.0 0.00 0.00 0.00 85 1012.1
20260503030044 60 0 0.0 2.0 0.00 0.00 0.00 85 1012.1
20260503025515 60 0 0.0 2.0 0.00 0.00 0.00 85 1012.2
20260503025016 61 0 0.0 2.0 0.00 0.00 0.00 85 1012.1
20260503024534 61 30 0.0 3.0 0.00 0.00 0.00 84 1012.0
20260503024019 61 0 0.0 3.0 0.00 0.00 0.00 84 1012.1
20260503023517 61 0 0.0 2.0 0.00 0.00 0.00 84 1012.1
20260503023032 61 30 0.0 3.0 0.00 0.00 0.00 84 1012.0
20260503022513 61 0 0.0 3.0 0.00 0.00 0.00 84 1012.2
20260503022018 61 0 0.0 2.0 0.00 0.00 0.00 84 1012.1
20260503021532 61 0 0.0 2.0 0.00 0.00 0.00 84 1012.1
20260503021016 61 0 0.0 3.0 0.00 0.00 0.00 83 1012.0
20260503020516 62 0 0.0 3.0 0.00 0.00 0.00 84 1012.0
20260503020030 62 0 0.0 3.0 0.00 0.00 0.00 84 1012.1
20260503015515 62 0 0.0 2.0 0.00 0.00 0.00 84 1012.1
20260503015015 62 0 0.0 2.0 0.00 0.00 0.00 83 1012.0
20260503014532 62 0 0.0 2.0 0.00 0.00 0.00 84 1012.0
20260503014016 62 0 0.0 3.0 0.00 0.00 0.00 83 1012.1
20260503013516 62 10 1.0 3.0 0.00 0.00 0.00 83 1011.9
20260503013036 62 315 1.0 3.0 0.00 0.00 0.00 83 1012.1
20260503012516 62 9 0.0 3.0 0.00 0.00 0.00 83 1012.0